{"data":{"norad_id":68289,"epoch":"2026-09-20T03:17:43.666080Z","epoch_age_seconds":83478,"freshness":"FRESH","line1":"1 68289U 26055AD  26263.13731095  .00015105  00000+0  45719-3 0  9999","line2":"2 68289  53.1550 131.6673 0001226  89.7128 270.4015 15.34406556 29769","mean_motion":15.34406556,"eccentricity":0.0001226,"inclination_deg":53.155,"raan_deg":131.6673,"arg_perigee_deg":89.7128,"mean_anomaly_deg":270.4015,"bstar":0.00045719,"rev_number":2976,"period_min":93.847357101621,"perigee_km":461.84506983837,"apogee_km":463.52243908737,"semimajor_km":6840.8207544629,"source":"CELESTRAK","updated_at":"2026-09-20T09:00:43.852135Z"}}